When you browse on this site, cookies collect data to enhance your experience and personalize the content and advertising you see.
Visit our Privacy Policy to learn more. By continuing to use the site, you agree to this use of cookies and data.
  • In United Kingdom
  • List of Countries
  • For 7 days
  • Water Temperature
  • Weather Map
  • Weather Widgets
  • user-avatar
    Login

    Hourly Weather Anantnag

    Today, 2 June, Tuesday

    Time Temperature Precipitation Wind Pressure Humidity
    00:00 +15°C° 0 mm 1 mps 625 mmHg 79%
    01:00 +15°C° 0 mm 1 mps 625 mmHg 79%
    02:00 +15°C° 0 mm 1 mps 625 mmHg 79%
    03:00 +14°C° 0 mm 1 mps 625 mmHg 79%
    04:00 +14°C° 0 mm 1 mps 625 mmHg 79%
    05:00 +14°C° 0 mm 1 mps 625 mmHg 79%
    06:00 +16°C° 0 mm 1 mps 626 mmHg 76%
    07:00 +18°C° 0 mm 1 mps 626 mmHg 72%
    08:00 +20°C° 0 mm 1 mps 627 mmHg 69%
    09:00 +21°C° 0.4 mm 1 mps 627 mmHg 65%
    10:00 +23°C° 0.4 mm 1 mps 628 mmHg 61%
    11:00 +24°C° 0 mm 2 mps 628 mmHg 57%
    12:00 +24°C° 0.2 mm 2 mps 628 mmHg 52%
    13:00 +25°C° 0.2 mm 2 mps 628 mmHg 48%
    14:00 +26°C° 0.2 mm 2 mps 628 mmHg 44%
    15:00 +25°C° 0.1 mm 1 mps 627 mmHg 44%
    16:00 +25°C° 0.1 mm 1 mps 627 mmHg 45%
    17:00 +25°C° 0.1 mm 1 mps 627 mmHg 46%
    18:00 +23°C° 0 mm 1 mps 626 mmHg 53%
    19:00 +20°C° 0 mm 1 mps 626 mmHg 59%
    20:00 +18°C° 0 mm 1 mps 626 mmHg 66%
    21:00 +18°C° 0 mm 1 mps 625 mmHg 67%
    22:00 +16°C° 0 mm 1 mps 625 mmHg 67%
    23:00 +16°C° 0 mm 1 mps 625 mmHg 67%

    Tomorrow, 3 June, Wednesday

    Time Temperature Precipitation Wind Pressure Humidity
    00:00 +16°C° 0 mm 1 mps 625 mmHg 68%
    01:00 +15°C° 0 mm 1 mps 625 mmHg 69%
    02:00 +15°C° 0 mm 1 mps 624 mmHg 69%
    03:00 +15°C° 0 mm 1 mps 624 mmHg 70%
    04:00 +14°C° 0 mm 1 mps 624 mmHg 70%
    05:00 +14°C° 0 mm 1 mps 624 mmHg 70%
    06:00 +16°C° 0 mm 1 mps 625 mmHg 66%
    07:00 +19°C° 0 mm 1 mps 626 mmHg 63%
    08:00 +21°C° 0 mm 1 mps 626 mmHg 59%
    09:00 +22°C° 0.1 mm 1 mps 627 mmHg 55%
    10:00 +24°C° 0.1 mm 1 mps 627 mmHg 52%
    11:00 +25°C° 0.1 mm 1 mps 627 mmHg 49%
    12:00 +26°C° 0.3 mm 1 mps 627 mmHg 46%
    13:00 +27°C° 0.3 mm 2 mps 627 mmHg 43%
    14:00 +27°C° 0.3 mm 2 mps 627 mmHg 41%
    15:00 +26°C° 0.2 mm 2 mps 627 mmHg 44%
    16:00 +26°C° 0.2 mm 2 mps 626 mmHg 47%
    17:00 +25°C° 0.2 mm 2 mps 626 mmHg 49%
    18:00 +24°C° 0.1 mm 2 mps 625 mmHg 54%
    19:00 +21°C° 0.1 mm 2 mps 625 mmHg 58%
    20:00 +19°C° 0.1 mm 2 mps 625 mmHg 62%
    21:00 +19°C° 0.1 mm 2 mps 625 mmHg 64%
    22:00 +19°C° 0.1 mm 1 mps 625 mmHg 65%
    23:00 +18°C° 0.1 mm 1 mps 625 mmHg 67%

    Day after tomorrow, 4 June, Thursday

    Time Temperature Precipitation Wind Pressure Humidity
    00:00 +18°C° 0.1 mm 1 mps 625 mmHg 68%
    01:00 +16°C° 0.1 mm 1 mps 625 mmHg 68%
    02:00 +16°C° 0.1 mm 1 mps 625 mmHg 69%
    03:00 +16°C° 0 mm 1 mps 624 mmHg 69%
    04:00 +15°C° 0 mm 1 mps 624 mmHg 69%
    05:00 +15°C° 0 mm 1 mps 624 mmHg 69%
    06:00 +18°C° 0 mm 1 mps 625 mmHg 66%
    07:00 +20°C° 0 mm 1 mps 625 mmHg 63%
    08:00 +22°C° 0 mm 1 mps 626 mmHg 59%
    09:00 +23°C° 0.2 mm 1 mps 626 mmHg 56%
    10:00 +24°C° 0.2 mm 1 mps 627 mmHg 53%
    11:00 +26°C° 0.2 mm 1 mps 627 mmHg 50%
    12:00 +26°C° 0.3 mm 1 mps 627 mmHg 47%
    13:00 +27°C° 0.3 mm 1 mps 626 mmHg 44%
    14:00 +28°C° 0.3 mm 1 mps 626 mmHg 42%
    15:00 +27°C° 0.2 mm 1 mps 626 mmHg 44%
    16:00 +27°C° 0.2 mm 1 mps 626 mmHg 47%
    17:00 +26°C° 0.2 mm 1 mps 625 mmHg 49%
    18:00 +24°C° 0.4 mm 1 mps 625 mmHg 56%
    19:00 +22°C° 0.4 mm 1 mps 625 mmHg 63%
    20:00 +19°C° 0.4 mm 2 mps 624 mmHg 69%
    21:00 +20°C° 0.2 mm 1 mps 624 mmHg 70%
    22:00 +19°C° 0.2 mm 1 mps 624 mmHg 70%
    23:00 +19°C° 0.2 mm 1 mps 624 mmHg 71%

    5 June, Friday

    Time Temperature Precipitation Wind Pressure Humidity
    00:00 +19°C° 0.3 mm 1 mps 624 mmHg 72%
    01:00 +18°C° 0.3 mm 1 mps 624 mmHg 73%
    02:00 +18°C° 0.3 mm 1 mps 624 mmHg 74%
    03:00 +18°C° 0.4 mm 1 mps 624 mmHg 75%
    04:00 +16°C° 0.4 mm 1 mps 624 mmHg 76%
    05:00 +16°C° 0.4 mm 1 mps 624 mmHg 77%
    06:00 +19°C° 0.1 mm 1 mps 624 mmHg 74%
    07:00 +20°C° 0.1 mm 1 mps 625 mmHg 70%
    08:00 +22°C° 0.1 mm 1 mps 626 mmHg 67%
    09:00 +23°C° 0.4 mm 1 mps 626 mmHg 63%
    10:00 +25°C° 0.4 mm 1 mps 626 mmHg 58%
    11:00 +26°C° 0.4 mm 1 mps 626 mmHg 54%
    12:00 +27°C° 0.6 mm 1 mps 626 mmHg 52%
    13:00 +27°C° 0.6 mm 1 mps 626 mmHg 50%
    14:00 +28°C° 0.6 mm 1 mps 626 mmHg 48%
    15:00 +27°C° 0.6 mm 2 mps 625 mmHg 51%
    16:00 +26°C° 0.6 mm 2 mps 625 mmHg 54%
    17:00 +26°C° 0.6 mm 2 mps 624 mmHg 57%
    18:00 +24°C° 0.4 mm 2 mps 624 mmHg 62%
    19:00 +23°C° 0.4 mm 2 mps 624 mmHg 67%
    20:00 +21°C° 0.4 mm 1 mps 624 mmHg 72%
    21:00 +21°C° 0.1 mm 1 mps 624 mmHg 72%
    22:00 +20°C° 0.1 mm 1 mps 624 mmHg 73%
    23:00 +20°C° 0.1 mm 1 mps 624 mmHg 73%

    6 June, Saturday

    Time Temperature Precipitation Wind Pressure Humidity
    00:00 +19°C° 0.6 mm 1 mps 624 mmHg 76%
    01:00 +19°C° 0.6 mm 1 mps 624 mmHg 78%
    02:00 +18°C° 0.6 mm 1 mps 624 mmHg 80%
    03:00 +18°C° 0.6 mm 1 mps 624 mmHg 81%
    04:00 +18°C° 0.6 mm 1 mps 624 mmHg 81%
    05:00 +16°C° 0.6 mm 0 mps 624 mmHg 82%
    06:00 +17°C° 0.4 mm 0 mps 625 mmHg 80%
    07:00 +20°C° 0.4 mm 1 mps 625 mmHg 78%
    08:00 +21°C° 0.4 mm 1 mps 626 mmHg 76%
    09:00 +23°C° 0.8 mm 1 mps 626 mmHg 71%
    10:00 +24°C° 0.8 mm 1 mps 627 mmHg 66%
    11:00 +25°C° 0.8 mm 2 mps 627 mmHg 61%
    12:00 +26°C° 0.9 mm 2 mps 627 mmHg 60%
    13:00 +26°C° 0.9 mm 2 mps 626 mmHg 59%
    14:00 +26°C° 0.9 mm 2 mps 626 mmHg 58%
    15:00 +24°C° 1.7 mm 2 mps 625 mmHg 66%
    16:00 +21°C° 1.7 mm 2 mps 624 mmHg 73%
    17:00 +20°C° 1.7 mm 2 mps 624 mmHg 81%
    18:00 +19°C° 0.5 mm 2 mps 624 mmHg 81%
    19:00 +19°C° 0.5 mm 2 mps 624 mmHg 82%
    20:00 +19°C° 0.5 mm 1 mps 624 mmHg 82%
    21:00 +19°C° 0 mm 1 mps 624 mmHg 82%
    22:00 +18°C° 0 mm 1 mps 624 mmHg 81%
    23:00 +18°C° 0 mm 1 mps 624 mmHg 80%

    7 June, Sunday

    Time Temperature Precipitation Wind Pressure Humidity
    00:00 +18°C° 0 mm 1 mps 624 mmHg 81%
    01:00 +16°C° 0 mm 1 mps 624 mmHg 83%
    02:00 +15°C° 0 mm 0 mps 624 mmHg 84%
    03:00 +15°C° 0 mm 0 mps 624 mmHg 85%
    04:00 +15°C° 0 mm 0 mps 624 mmHg 85%
    05:00 +14°C° 0 mm 0 mps 624 mmHg 86%
    06:00 +18°C° 0 mm 1 mps 625 mmHg 81%
    07:00 +20°C° 0 mm 1 mps 625 mmHg 77%
    08:00 +22°C° 0 mm 1 mps 626 mmHg 72%
    09:00 +23°C° 0.5 mm 1 mps 626 mmHg 67%
    10:00 +25°C° 0.5 mm 1 mps 627 mmHg 63%
    11:00 +26°C° 0.5 mm 1 mps 627 mmHg 58%
    12:00 +26°C° 0.8 mm 1 mps 627 mmHg 57%
    13:00 +26°C° 0.8 mm 2 mps 626 mmHg 56%
    14:00 +27°C° 0.8 mm 2 mps 626 mmHg 55%
    15:00 +26°C° 0.6 mm 2 mps 625 mmHg 58%
    16:00 +25°C° 0.6 mm 1 mps 625 mmHg 61%
    17:00 +25°C° 0.6 mm 1 mps 625 mmHg 64%
    18:00 +23°C° 0.1 mm 1 mps 624 mmHg 67%
    19:00 +22°C° 0.1 mm 1 mps 624 mmHg 70%
    20:00 +21°C° 0.1 mm 1 mps 624 mmHg 73%
    21:00 +20°C° 0 mm 1 mps 624 mmHg 72%
    22:00 +20°C° 0 mm 1 mps 624 mmHg 72%
    23:00 +19°C° 0 mm 1 mps 624 mmHg 71%
    Show more